Location: Newark
(43.0000°N, 1.6781°W)
Time: 08:41:08
(UTC+00:00)

VELOX 1 - Visible Passes

Search period start: 09 May 2021 00:00
Search period end: 19 May 2021 00:00
Orbit: 627 x 643 km, 98.3° (Epoch: 08 May)

Date Brightness Start Highest point End Pass type
(mag) Time Alt. Az. Time Alt. Az. Time Alt. Az.
09 May ? 01:50:46 10° E 01:53:07 14° ENE 01:55:27 10° NNE visible
09 May ? 03:24:33 10° S 03:28:57 64° WSW 03:33:22 10° NNW visible
10 May ? 02:11:22 10° ESE 02:14:48 22° ENE 02:18:14 10° NNE visible
10 May ? 03:46:50 10° SSW 03:50:56 37° W 03:55:04 10° NNW visible
11 May ? 02:32:30 10° SE 02:36:32 36° ENE 02:40:35 10° N visible
11 May ? 04:09:30 10° SSW 04:12:59 22° W 04:16:28 10° NW visible
12 May ? 02:54:00 10° SSE 02:58:21 60° ENE 03:02:43 10° N visible
13 May ? 01:43:03 10° E 01:44:31 11° ENE 01:46:00 10° NE visible
13 May ? 03:15:48 10° S 03:20:14 81° WSW 03:24:41 10° NNW visible
14 May ? 02:03:08 10° ESE 02:06:10 18° ENE 02:09:12 10° NNE visible
14 May ? 03:37:55 10° S 03:42:11 46° W 03:46:28 10° NNW visible
15 May ? 02:24:05 10° SE 02:27:53 29° ENE 02:31:41 10° N visible
15 May ? 04:00:24 10° SSW 04:04:12 28° W 04:08:00 10° NW visible
16 May ? 02:45:26 10° SE 02:49:40 47° ENE 02:53:55 10° N visible
17 May ? 03:07:06 10° SSE 03:11:31 81° ENE 03:15:57 10° NNW visible
18 May ? 01:55:03 10° E 01:57:33 15° ENE 02:00:02 10° NNE visible
18 May ? 03:29:04 10° S 03:33:25 59° WSW 03:37:48 10° NNW visible
